Other Public Products
Issued by NWS Grand Forks, ND

Home | Current Version | Previous Version | Graphics & Text | Print | Product List | Glossary On
Versions: 1 2 3 4 5 6 7 8 9 10 11 12 13 14 15 16 17 18 19 20 21 22 23 24 25 26 27 28 29 30 31 32 33 34 35 36 37 38 39 40 41 42 43 44 45 46 47 48 49 50
000
FPUS83 KFGF 280210
OPUFGF
PRAIRIE TO PINES WEATHER ROUNDUP
NATIONAL WEATHER SERVICE EASTERN NORTH DAKOTA/GRAND FORKS ND
900 PM CDT TUE SEP 27 2016

 **SATELLITE DATA USED TO AUGMENT SKY COVER AT AUTOMATED STATIONS**
 *****  WEATHER ACROSS EASTERN NORTH DAKOTA  *****

CITY           SKY/WX    TMP DP  RH WIND       PRES   REMARKS
GRAND FORKS    CLOUDY    53  46  77 N7        29.98R
GRAND FORKS AF MOCLDY    46  45  93 N6        29.99R
GRAND CITY NWS   N/A     50 N/A N/A N5          N/A
BUXTON         NOT AVBL
DEVILS LAKE    CLEAR     49  41  74 E7        30.00R
FARGO          CLOUDY    54  44  69 N12       29.95R
WAHPETON ARPT  CLEAR     50  41  71 N8        29.95R
$$

 *****  WEATHER ACROSS CENTRAL AND WESTERN NORTH DAKOTA  *****

CITY           SKY/WX    TMP DP  RH WIND       PRES   REMARKS
JAMESTOWN      CLEAR     48  36  63 NE6       29.97R
BISMARCK       CLEAR     52  44  74 E5        29.98R
MINOT          CLEAR     55  42  61 E6        29.97R HAZE
MINOT AFB      CLEAR     52  41  66 SE5       29.97R
GARRISON         N/A     56  43  61 E7        29.97R
WILLISTON      CLEAR     57  50  77 CALM      29.94R
DICKINSON      CLEAR     62  47  57 S5        29.97R
HETTINGER      CLEAR     59  46  62 CALM      30.01R
$$

 *****  OTHER OBSERVATIONS NORTHEAST NORTH DAKOTA  *****

CITY           SKY/WX    TMP DP  RH WIND       PRES   REMARKS
WALHALLA       FAIR      52  48  87 E7        30.01R
LANGDON        FAIR      45  43  93 NE6       30.00R
CAVALIER       CLOUDY    52  46  82 NE8       30.00R
GRAFTON        MOCLDY    52  46  82 N6        30.01R
CANDO          FAIR      50  39  66 E9        30.02R
FORT TOTTEN      N/A     55  39  54 E3        29.95S
ROLLA          FAIR      46  36  66 CALM      30.01R
RUGBY          FAIR      48  36  61 E6        29.99R
 ***** THE ABOVE OBSERVATIONS ARE NON NWS ARE NOT QUALITY
        CONTROLLED AND MAY MIS-REPORT RAIN FOR SNOW...
$$

 *****  OTHER OBSERVATIONS SOUTHEAST NORTH DAKOTA *****

CITY           SKY/WX    TMP DP  RH WIND       PRES   REMARKS
COOPERSTOWN    FAIR      46  43  87 NE7       29.99R
VALLEY CITY    FAIR      48  45  87 NE5       29.99R
OAKES          NOT AVBL
GWINNER        FAIR      50  41  71 NE6       29.97R
SHEYENNE NWR     N/A     51  42  70 NE6       29.95S
BUFFALO        NOT AVBL
WYNDMERE       NOT AVBL
 ***** THE ABOVE OBSERVATIONS ARE NON NWS ARE NOT QUALITY
       CONTROLLED AND MAY MIS-REPORT RAIN FOR SNOW...
$$

  *****  WEATHER ACROSS NORTHERN MINNESOTA  *****

CITY           SKY/WX    TMP DP  RH WIND       PRES   REMARKS
FLAG ISLAND    CLOUDY    52  45  76 N12       29.97R
WARROAD        CLOUDY    46  43  87 NW3       29.99R
ROSEAU         MOCLDY    50  43  76 N6        29.99R
HALLOCK        PTCLDY    48  45  87 N5        30.00R
THF RVR FALLS    N/A     49  41  74 N9        29.99R
HALSTAD          N/A     53  45  74 NE9         N/A
FOSSTON        MOCLDY    43  43 100 N7        29.98R
BAUDETTE       MOCLDY    49  43  80 N7        29.96R
WASKISH        MOCLDY    46  45  93 N5        29.95R
CROOKSTON      CLOUDY    52  45  76 NE6       29.98R
$$
  *****  WEATHER ACROSS CENTRAL AND WEST MINNESOTA  *****

CITY           SKY/WX    TMP DP  RH WIND       PRES   REMARKS
BEMIDJI        PTCLDY    43  42  96 N3        29.94R
PARK RAPIDS    CLOUDY    48  41  76 N9        29.93R
WADENA         MOCLDY    46  43  87 N10G16    29.93R
DETROIT LAKES  CLOUDY    48  43  81 N9G18     29.96R
MOORHEAD       MOCLDY    54  45  71 N13       29.96R
FERGUS FALLS   CLOUDY    52  43  71 N9G17     29.96R
ELBOW LAKE     CLOUDY    51  44  75 NE12G18   29.93R
MORRIS MN      CLOUDY    54  43  66 N12G17    29.91R
STAPLES        CLEAR     45  43  93 N7        29.93R
WHEATON        NOT AVBL
$$
  *****  WEATHER ELSEWHERE ACROSS MINNESOTA  *****

CITY           SKY/WX    TMP DP  RH WIND       PRES   REMARKS
DULUTH         CLOUDY    49  46  90 N10       29.83R
INTRNTL FALLS  CLOUDY    50  46  86 N9        29.93R
ELY            CLOUDY    48  46  93 N5        29.86R
CLOQUET        CLOUDY    48  45  87 NW12G17   29.84R
BRAINERD       PTCLDY    47  44  90 N10       29.91R
HIBBING        CLOUDY    47  45  93 N13       29.88R
ALEXANDRIA     CLOUDY    51  44  77 N17G24    29.93R
SAINT CLOUD    CLOUDY    48  46  93 N8        29.89R
MINNEAPOLIS    MOCLDY    50  46  86 NW10      29.86R
$$

  *****  WEATHER ACROSS SOUTH DAKOTA  *****

CITY           SKY/WX    TMP DP  RH WIND       PRES   REMARKS
SIOUX FALLS    CLEAR     57  44  62 N7        29.89R
BROOKINGS      CLEAR     52  36  54 N7        29.91R
WATERTOWN      CLEAR     48  33  56 N8        29.92R
HURON          CLEAR     57  41  55 N8        29.92R
SISSETON         N/A     51  42  71 NE7       29.94R
ABERDEEN       CLEAR     53  37  54 N6        29.94R
MITCHELL       CLEAR     60  42  51 N6        29.92R
PIERRE         CLEAR     59  43  55 NE6       29.94R
MOBRIDGE       CLEAR     58  41  53 NE7       29.93R
RAPID CITY     CLEAR     67  43  41 N14       30.02R
$$

  *****  SOME WEATHER IN NEARBY STATES *****

CITY           SKY/WX    TMP DP  RH WIND       PRES   REMARKS
GLASGOW MT     CLEAR     74  44  34 NW7       29.93R
GREAT FALLS MT CLEAR     65  45  48 N15       30.08R
CHEYENNE WY    CLEAR     65  25  22 NW6       30.21R
SCOTTSBLUFF NE CLEAR     64  42  44 NE9       30.07R
OMAHA NE       CLEAR     63  52  67 W3        29.86R
DES MOINES IA  PTCLDY    64  46  52 W5        29.82R
DAVENPORT IA   CLOUDY    56  42  59 N6        29.78S
CHICAGO IL     MOCLDY    60  44  55 NE9       29.77R
EAU CLAIRE WI  CLOUDY    48  46  93 NW6       29.81R
LA CROSSE WI   LGT RAIN  52  48  86 NW9       29.81S
$$

  *****  SOME NATIONAL WEATHER *****

CITY           SKY/WX    TMP DP  RH WIND       PRES   REMARKS
LA GUARDIA NY  PTCLDY    70  64  81 S8        29.95R
RALEIGH NC     CLOUDY    73  70  90 S6        29.91S
ATLANTA GA     MOCLDY    73  68  84 N10       29.94R THUNDER
NEW ORLEANS LA MOCLDY    81  72  74 SW6       29.94S
OKLAHOMA CITY  CLEAR     63  51  65 S7        30.00R
ALBUQUERQUE NM PTCLDY    72  40  31 SW7       30.18S
SALT LAKE CITY CLEAR     68  50  52 W6        30.13R
LOS ANGELES CA PTCLDY    80  50  34 W12       29.85R
BOISE ID       CLEAR     77  45  32 CALM      29.99R
SEATTLE WA     PTCLDY    60  39  45 N14       30.14F
$$

*** WEATHER ACROSS MANITOBA...SASKATCHEWAN AND ONTARIO ***
                ***ONTARIO***

CITY           SKY/WX    TMP DP  RH WIND       PRES   REMARKS
GERALDTON      MOCLDY    52  50  93 NE10      29.85R
THUNDER BAY    CLOUDY    54  48  82 N8        29.78R
SIOUX LOOKOUT  CLOUDY    50  48  93 N5        29.93R
TORONTO        MOCLDY    61  39  44 CALM      29.83R
BIG TROUT LK   CLOUDY    52  50  93 VRB2      30.00R
PICKLE LAKE    MOCLDY    50  50 100 NE6       29.96R
DRYDEN         CLOUDY    48  48 100 N7        29.95R
KENORA         LGT RAIN  46  46 100 N6        29.98R
$$
                *** MANITOBA***

CITY           SKY/WX    TMP DP  RH WIND       PRES   REMARKS
BRANDON        CLEAR     45  37  76 E7        30.01R
DAUPHIN        CLEAR     45  39  81 S6        30.01R
ISLAND LAKE    CLOUDY    46  45  93 CALM      30.04R
PILOT MOUND      N/A     46  39  76 NE7         N/A
THE PAS        PTCLDY    46  43  87 SE8       30.00R
THOMPSON       CLOUDY    46  41  81 CALM      30.03R
WINNIPEG       MOCLDY    50  43  76 NE9       30.02R
LYNN LAKE      CLOUDY    43  41  93 S6        29.95S
CHURCHILL      CLOUDY    43  43 100 S3        30.02S
GILLAM         DRZL/FOG  45  45 100 SW2       30.02S VSB 3/4
$$
                ***SASKATCHEWAN***

CITY           SKY/WX    TMP DP  RH WIND       PRES   REMARKS
ESTEVAN        CLEAR     57  45  62 E10       29.95R
KINDERSLEY     MOCLDY    55  39  54 N13       30.11R
LLOYDMINSTER   PTCLDY    45  36  70 W7        30.13R
PRINCE ALBERT  PTCLDY    59  48  67 N12G17    29.97R
REGINA         CLEAR     61  48  63 SE10      29.92R
YORKTON        CLEAR     52  36  54 SE8       29.96R   C1F1C2F2C3F3C4F4C5F5C6F6C7F7C8F8C9F9CaFaCbFbCcFcCdFdCe!



USA.gov is the U.S. government's official web portal to all federal, state and local government web resources and services.